Temperature
22 22 22 22 20 18 20 21 22 22 22 23 23 22 21 20 20 20 20 20 20 20 20 20 20 20 20 20 20 20 20 20 20 19 19 19 19 19 19 19 19 18 18 18 18 18 18 18 18
22 22 22 22 18 19 20 21 21 22 22 22 22 22 20 19 19 19 19 20 20 20 20 20 20 20 20 20 20 20 20 20 19 19 19 19 19 19 19 19 18 18 18 18 18 18 18 18 18
22 22 22 18 18 19 22 22 21 22 23 22 21 21 20 19 19 20 20 20 20 20 20 20 20 20 20 20 20 20 20 19 19 19 19 19 19 19 19 19 18 18 18 18 18 18 18 18 18
22 22 21 18 20 20 21 22 22 22 22 22 21 20 19 19 20 20 20 20 20 20 20 20 20 20 20 20 20 19 19 19 19 19 19 19 19 19 19 18 18 18 18 18 18 18 18 17 17
22 22 18 18 20 20 20 22 22 22 21 21 20 19 18 19 20 20 20 20 20 20 20 20 20 20 20 20 19 19 19 19 19 19 19 18 18 18 18 18 18 18 18 18 18 18 17 17 17
22 18 17 18 20 20 20 22 22 21 21 20 20 18 18 19 20 20 20 20 20 20 20 19 19 19 19 19 19 19 19 19 18 18 18 18 18 18 18 18 18 18 18 18 18 17 17 17 17
20 16 18 19 20 21 21 21 21 20 20 20 20 18 18 18 19 20 19 19 19 19 19 19 19 19 19 19 19 18 18 18 18 18 18 18 18 18 18 18 18 18 17 17 17 17 17 17 17
22 17 19 19 20 20 20 20 20 21 20 20 20 18 18 18 19 19 19 19 19 19 19 19 19 19 18 18 18 18 18 18 18 18 18 18 18 18 18 18 17 17 17 17 17 17 17 17 17
21 17 18 20 20 20 20 20 20 20 20 19 19 19 19 18 18 19 19 18 19 19 19 19 18 18 18 18 18 18 18 18 18 18 18 18 18 18 17 17 17 17 17 17 17 17 17 17 17
20 17 20 20 20 20 20 20 20 20 19 18 18 19 19 18 18 18 18 18 18 18 18 18 18 18 18 18 18 18 18 17 17 17 17 17 17 17 17 17 17 17 17 17 17 17 17 17 17
20 19 20 20 21 21 20 20 20 20 19 19 18 18 18 18 18 18 18 18 18 18 18 18 18 18 18 17 17 17 17 17 17 17 17 17 17 17 17 17 17 16 16 16 16 16 16 16 16
20 20 20 21 21 20 20 19 19 19 19 19 19 19 18 18 18 18 18 18 18 18 18 18 17 17 17 17 17 17 17 17 17 17 17 17 17 16 16 16 16 16 16 16 16 16 16 16 16
20 20 20 20 20 20 19 19 18 18 19 19 18 18 18 18 18 18 18 18 18 17 17 17 17 17 17 17 17 16 16 16 16 16 16 16 16 16 16 16 16 16 16 16 16 16 16 16 16
20 19 19 20 20 20 19 18 18 18 18 18 17 17 17 17 18 17 17 17 17 17 17 17 17 17 17 17 16 16 16 16 16 16 16 16 16 15 15 15 15 16 15 15 15 15 15 15 15
20 19 19 19 19 19 19 18 18 17 17 17 17 17 16 16 17 17 17 17 17 17 17 17 17 16 16 16 16 16 16 16 15 15 15 15 15 15 15 15 15 15 15 15 15 15 15 15 15
19 19 19 19 18 19 19 18 17 17 17 16 16 16 16 16 16 17 17 17 17 17 17 17 16 16 16 16 16 16 15 15 15 15 15 15 15 15 15 15 15 15 15 15 15 15 15 14 15
18 18 19 19 19 18 19 18 17 17 17 16 16 16 16 16 16 16 16 17 17 17 16 16 16 16 16 15 15 15 15 15 15 14 14 14 14 14 14 14 14 14 14 14 14 14 14 14 14
19 19 19 19 19 18 18 17 17 16 16 16 16 16 15 16 16 16 16 16 16 16 16 16 16 16 15 15 15 15 14 14 14 14 14 14 14 14 14 14 14 13 13 13 13 14 14 13 13
20 19 19 19 19 18 17 17 16 16 16 16 15 15 15 16 16 15 15 15 15 15 15 15 15 15 15 15 14 14 14 14 14 14 14 14 13 13 13 13 13 13 13 13 13 13 13 13 13
19 19 18 18 19 18 17 17 17 16 16 16 15 15 15 15 15 15 15 15 15 15 15 15 15 15 14 14 14 14 14 14 13 13 13 13 13 13 13 13 13 12 12 12 12 12 12 12 12
19 19 19 19 18 18 18 17 16 16 16 16 15 15 15 15 15 15 15 15 15 15 14 14 14 14 14 14 14 14 13 13 13 13 13 12 12 12 12 12 12 12 12 12 12 12 12 12 12
20 20 19 19 17 17 17 17 17 16 15 15 15 15 15 15 15 14 14 14 14 14 14 14 14 14 14 13 13 13 13 13 12 12 12 12 12 12 12 12 12 11 11 11 11 11 11 11 11
20 20 19 18 17 16 16 16 16 15 15 15 15 15 15 15 15 14 14 14 14 14 13 13 13 13 13 13 13 13 12 12 12 12 12 11 11 11 11 11 11 11 11 11 11 11 11 11 11
20 18 17 15 15 17 16 16 16 15 15 15 15 15 15 15 14 14 14 14 13 13 13 13 13 13 13 12 12 12 12 12 11 11 11 11 11 11 11 11 11 11 11 10 10 10 10 10 10
19 17 17 17 16 16 16 15 15 15 15 15 15 15 15 14 14 14 14 13 13 13 13 12 12 12 12 12 12 12 11 11 11 11 11 11 11 10 10 10 10 10 10 10 10 10 10 10 10
19 18 17 17 16 16 16 15 15 15 15 15 15 15 14 14 14 13 13 13 13 13 12 12 12 12 12 12 11 11 11 11 10 10 10 10 10 10 10 10 10 10 10 10 10 10 10 10 10
18 17 16 15 15 15 15 15 15 15 14 14 14 13 13 13 13 13 13 13 13 12 12 12 12 11 11 11 11 11 11 10 10 10 10 10 10 10 10 9 9 9 9 9 9 9 9 9 9
18 15 14 15 16 16 16 16 15 15 14 13 13 13 13 13 13 13 12 12 12 12 12 12 11 11 11 11 11 10 10 10 10 10 10 9 9 9 9 9 9 9 9 9 9 9 9 9 9
18 17 14 13 14 15 16 15 15 15 14 13 12 12 13 13 12 12 12 12 12 11 11 11 11 11 11 10 10 10 10 10 10 9 9 9 9 9 9 9 9 9 9 9 9 9 9 9 9
19 17 15 16 16 14 14 15 15 14 13 13 12 12 12 12 12 12 12 12 11 11 11 11 10 10 10 10 10 10 10 9 9 9 9 9 9 9 9 9 9 9 8 8 8 8 8 8 8
Wind_Speed
5 2 2 3 5 5 1 3 1 1 2 2 6 6 6 4 2 3 3 9 12 12 14 16 17 17 17 17 17 17 18 18 17 17 17 16 15 14 13 12 12 11 10 10 10 9 9 8 8
1 1 4 5 5 2 3 2 0 1 3 5 6 6 6 5 4 5 5 8 13 13 14 15 17 17 17 17 17 17 16 16 16 15 15 14 14 13 12 11 11 10 9 9 8 8 8 7 7
1 2 5 5 4 4 2 1 3 4 5 4 5 5 4 3 4 4 6 11 11 11 12 15 17 17 17 16 16 16 15 15 14 14 13 13 12 11 11 10 9 8 8 7 7 6 6 6 6
3 4 5 5 2 4 3 2 3 4 5 6 5 5 4 4 2 6 12 12 12 9 11 15 16 16 16 16 15 14 14 13 13 12 12 11 10 9 9 8 8 7 6 6 5 5 4 4 4
4 5 5 3 2 2 2 1 2 3 3 4 5 5 4 5 8 12 12 12 11 9 10 13 15 15 15 15 14 13 13 12 11 11 10 9 8 8 7 6 6 5 4 4 4 3 3 2 2
5 5 5 1 2 2 1 1 3 5 4 4 5 5 3 3 8 10 11 10 10 9 9 11 13 14 14 13 13 12 11 11 10 9 9 8 7 6 5 5 4 3 3 3 2 2 1 1 0
5 5 5 3 1 1 0 2 3 5 5 3 3 5 3 5 7 9 10 10 9 8 8 8 10 11 11 11 11 11 10 10 9 8 7 6 5 5 4 3 3 2 2 2 1 1 1 1 1
5 5 4 2 2 1 1 3 3 4 4 2 3 6 5 6 9 10 10 9 9 7 6 6 7 8 8 9 9 9 9 8 7 7 6 5 5 4 3 2 1 1 0 1 1 1 2 2 3
4 5 2 3 4 3 1 3 3 3 5 4 3 3 7 14 13 12 10 8 7 7 5 5 6 7 7 7 7 8 7 6 6 5 5 4 4 3 3 2 1 1 1 1 2 2 2 2 3
5 4 4 3 4 4 2 3 3 4 5 4 6 8 14 13 12 12 11 9 7 6 4 4 4 5 6 5 6 6 5 5 5 5 4 4 4 3 3 3 3 2 3 3 3 3 2 2 2
4 5 3 2 4 5 4 3 3 6 2 3 8 14 15 13 10 10 9 7 6 5 5 3 4 5 5 5 5 5 5 4 4 4 4 4 3 3 4 3 4 4 4 4 4 4 3 2 2
3 1 2 2 4 4 4 3 4 3 2 6 10 14 13 12 10 9 8 7 6 6 4 4 4 5 5 5 5 4 4 3 3 3 3 3 2 2 2 2 3 3 3 3 3 3 3 3 2
2 0 2 4 6 6 7 5 5 4 6 11 13 12 11 10 8 6 6 6 6 5 4 4 4 4 5 5 4 4 4 3 3 3 3 3 2 2 2 2 2 3 3 3 3 3 3 3 3
3 3 3 3 4 3 8 5 5 4 9 12 12 10 8 8 8 7 6 6 5 4 3 3 4 4 5 4 4 4 4 4 4 4 4 4 2 2 2 2 2 3 3 3 2 2 2 2 2
4 4 5 4 3 3 7 6 3 6 10 11 11 9 7 6 6 7 6 5 5 4 4 3 4 4 5 5 4 4 4 5 4 4 4 4 3 2 2 2 2 3 3 3 2 3 2 2 2
4 5 3 2 2 1 5 3 3 7 11 10 9 8 7 6 5 5 5 5 5 4 4 3 3 4 5 4 4 4 4 4 4 4 5 5 4 3 2 2 2 4 3 3 2 2 2 2 2
5 3 1 1 0 3 4 4 5 8 10 10 8 7 7 6 4 4 5 4 4 4 4 4 4 4 4 4 4 5 5 5 5 5 5 5 5 5 4 3 3 4 4 3 2 2 1 2 3
2 2 0 2 2 4 4 4 6 8 9 9 8 8 8 7 5 4 4 4 4 4 4 4 4 4 4 4 3 3 4 4 6 6 6 6 6 6 5 3 4 4 3 3 2 2 2 1 2
5 3 1 2 2 4 4 5 7 7 8 8 7 8 8 7 5 5 4 4 4 5 4 4 4 2 3 2 2 2 2 2 3 5 6 7 6 6 5 4 4 3 2 2 3 1 2 2 1
4 2 1 1 2 3 4 3 5 8 9 9 9 9 9 7 6 6 5 4 4 4 3 3 3 2 2 2 2 2 2 2 1 3 6 7 7 6 4 4 3 3 2 3 3 2 1 1 1
3 5 5 3 3 4 4 0 3 4 5 6 6 7 9 10 10 8 6 4 3 3 3 3 3 2 2 3 3 4 3 3 2 3 3 6 6 6 5 4 3 3 2 2 2 2 1 1 1
4 5 7 5 4 1 2 3 4 5 6 8 8 8 9 9 8 8 6 5 3 2 2 4 3 3 3 4 4 4 2 1 0 1 1 4 6 6 6 5 4 3 2 2 2 2 1 0 1
4 3 5 4 4 2 1 2 5 2 7 10 10 10 9 9 9 8 7 6 4 3 3 3 3 3 3 3 4 4 3 1 1 1 2 3 4 6 6 5 5 4 3 3 3 2 1 1 1
6 7 7 6 5 1 2 3 5 4 7 6 7 9 9 8 8 7 6 6 4 4 3 3 3 3 3 4 3 3 3 2 2 2 2 2 2 4 6 6 5 4 4 3 2 2 1 1 1
5 6 4 4 4 4 1 2 7 5 4 5 6 7 7 7 8 7 7 6 5 4 4 3 3 3 2 3 3 3 3 2 2 1 1 2 2 3 4 5 5 4 4 3 2 2 2 2 1
3 7 7 5 5 4 1 4 5 3 2 1 4 6 7 7 7 7 6 6 5 4 4 4 3 3 2 3 3 2 3 2 1 1 1 1 1 2 3 4 4 4 4 4 3 2 2 2 2
6 3 5 6 3 1 4 5 5 0 2 3 5 6 6 6 7 7 6 6 5 5 5 5 4 3 2 2 3 2 2 2 1 1 1 1 1 2 4 4 4 4 5 4 3 2 3 2 2
5 8 6 5 4 3 4 4 4 4 3 2 5 6 6 6 6 6 6 5 4 4 4 4 4 3 3 2 2 2 2 2 1 1 2 2 2 3 3 4 4 4 5 4 4 3 3 3 3
3 4 5 5 5 5 4 6 4 6 6 6 6 6 7 7 7 6 5 5 4 4 4 4 4 3 2 2 2 3 2 2 2 2 2 2 2 3 3 3 4 4 4 4 4 4 4 4 3
2 5 6 4 4 4 4 6 3 3 5 6 7 6 6 7 6 6 6 6 5 4 4 4 3 3 2 2 3 3 2 3 3 2 2 2 2 3 3 3 3 4 4 3 3 4 4 4 4
Wind_Direction
296 307 107 73 57 51 325 286 262 23 56 66 97 104 108 92 128 144 100 127 129 137 144 142 137 131 127 122 119 116 115 114 115 116 118 119 120 120 120 119 117 115 114 112 112 112 112 112 114
294 125 67 63 84 71 288 273 123 83 128 104 77 76 77 70 67 95 112 129 132 136 140 142 138 132 129 126 123 121 120 119 119 120 121 122 122 122 121 120 118 116 115 114 115 117 116 116 119
262 69 85 77 108 170 216 211 133 91 82 77 77 58 69 78 100 104 126 130 127 131 137 143 139 135 132 129 127 126 124 123 122 122 122 123 123 123 122 122 121 119 118 118 118 118 119 120 122
96 55 58 79 159 219 215 189 130 98 54 50 91 74 57 30 96 121 128 129 128 127 134 142 140 138 135 133 131 129 128 127 126 125 124 123 123 123 123 123 123 122 121 120 121 122 121 122 123
62 82 72 63 258 266 250 191 129 104 86 69 88 90 45 13 95 118 126 128 129 126 129 139 140 139 138 137 135 134 133 131 130 129 128 127 126 125 127 127 128 128 130 132 133 129 123 118 122
61 73 93 158 270 290 292 14 100 99 103 95 98 101 72 93 110 120 121 120 125 127 124 134 140 140 139 138 138 138 136 134 131 130 129 128 128 129 131 133 137 140 142 140 144 145 143 146 125
106 101 136 166 222 331 90 45 84 110 108 109 109 109 112 120 114 117 112 111 111 112 114 121 133 136 138 138 139 139 136 132 131 130 129 129 129 132 135 139 147 150 150 151 159 183 204 279 295
122 105 109 162 161 205 19 51 62 91 110 81 94 133 150 145 122 112 107 107 109 107 101 96 111 120 127 132 135 134 131 128 127 126 126 125 117 112 107 96 123 146 169 229 248 269 280 288 291
92 79 139 199 176 186 126 83 47 65 92 71 63 107 130 131 125 120 117 111 112 110 102 88 91 99 109 120 127 125 123 119 116 112 112 106 94 82 66 45 38 1 332 304 296 291 294 304 306
88 121 210 210 177 158 129 110 123 99 83 81 79 93 120 129 132 132 133 133 130 128 119 94 91 92 97 107 104 102 104 103 99 98 96 92 82 66 45 20 12 11 8 349 329 318 309 312 301
125 169 209 198 156 133 117 86 92 120 115 159 143 137 135 134 134 133 132 132 131 130 124 109 96 89 85 80 88 86 85 85 81 75 73 77 70 49 32 20 7 2 358 354 345 345 338 327 311
132 239 188 154 113 103 117 115 89 87 139 118 130 136 136 139 140 139 137 132 122 121 120 106 91 91 87 86 87 84 80 76 65 57 62 74 63 45 27 20 2 1 356 350 347 346 342 336 335
147 236 68 100 93 101 99 99 108 93 98 106 115 122 130 131 123 114 113 113 113 121 119 114 106 108 99 91 87 81 76 76 65 55 55 63 48 21 11 15 6 1 355 345 336 348 349 342 340
144 111 77 59 81 90 106 85 85 105 108 109 114 119 131 134 133 123 117 116 114 114 107 109 114 107 101 95 93 87 83 76 65 51 41 48 47 28 22 20 14 3 346 328 324 336 344 342 350
102 80 41 29 61 107 101 64 90 130 119 117 120 125 129 121 118 128 138 131 125 119 103 103 110 93 100 101 95 87 82 79 68 48 37 35 32 30 37 31 16 358 343 341 354 6 8 8 8
65 66 59 320 76 98 105 140 153 142 132 131 133 136 127 111 111 116 119 116 115 111 103 96 104 100 99 96 93 86 80 76 63 50 39 34 31 37 51 38 12 359 2 11 8 16 7 7 2
47 85 117 298 160 124 126 165 167 153 145 147 148 145 139 130 122 118 115 116 115 115 109 91 85 91 95 91 84 81 74 65 56 49 41 34 37 43 60 44 14 15 21 19 9 22 23 2 355
141 122 145 228 214 127 141 165 162 162 158 159 161 157 155 160 164 144 126 123 113 102 93 86 81 85 98 95 85 75 66 51 47 44 37 37 37 40 46 39 20 21 18 8 6 6 11 353 341
146 140 241 259 191 149 163 166 173 166 167 169 172 166 169 168 151 136 130 125 106 91 90 92 92 96 107 106 104 93 74 48 34 34 36 37 36 37 39 28 19 19 15 360 4 2 8 4 6
137 125 265 353 80 136 140 163 177 178 189 186 185 179 173 162 155 156 152 133 119 115 110 104 103 105 110 122 123 113 104 79 53 25 32 32 30 29 30 27 14 9 11 10 9 15 9 334 1
176 180 201 180 69 73 116 141 201 195 194 202 197 183 175 174 173 172 166 152 136 130 125 112 106 99 97 98 94 84 66 50 33 16 10 12 21 24 28 27 22 12 20 351 343 357 12 308 308
228 211 181 160 129 200 156 219 242 205 206 214 211 195 183 178 174 172 167 157 152 147 118 109 111 106 103 107 114 113 110 104 4 345 352 3 16 20 25 27 27 21 16 360 343 8 343 319 299
196 105 120 124 130 97 34 169 279 197 224 227 216 204 193 184 175 173 168 157 146 124 106 105 105 96 94 100 114 112 113 117 73 50 30 13 6 13 18 18 18 16 7 354 355 356 354 311 266
125 78 64 58 76 88 233 173 267 223 228 233 215 204 194 180 169 158 147 137 128 114 107 105 104 89 88 96 94 106 124 117 96 61 25 3 358 2 8 10 9 4 360 353 347 347 351 343 308
89 92 40 5 7 255 234 196 250 260 249 221 211 196 177 164 159 154 148 144 136 127 121 108 105 92 89 97 94 105 124 127 123 121 38 5 359 352 347 358 356 353 353 355 7 14 7 5 357
146 136 156 199 224 266 308 236 257 292 317 172 155 155 150 151 153 154 150 144 143 144 140 131 120 116 110 110 110 108 114 118 123 119 91 11 328 317 330 349 351 352 359 8 16 16 3 17 13
129 131 152 133 145 248 272 275 296 46 37 81 120 133 144 148 147 148 148 147 149 157 161 150 139 134 118 113 108 105 104 104 100 58 57 11 332 336 352 358 -0 0 7 10 14 19 4 12 9
119 138 103 119 152 247 281 270 256 246 221 148 144 148 146 143 143 146 150 149 150 157 152 140 139 144 130 120 118 111 91 86 82 68 44 17 358 359 359 1 2 6 13 15 21 15 3 11 357
104 97 105 115 152 165 249 269 233 216 193 178 174 163 156 154 153 152 149 145 140 134 136 135 132 130 120 117 98 89 74 65 66 58 31 15 8 8 8 4 7 11 13 11 15 6 1 7 1
162 162 148 154 209 177 191 263 311 213 171 163 165 161 156 153 148 143 138 131 130 134 138 139 140 137 138 126 107 98 83 70 60 45 27 24 19 8 5 9 15 13 10 7 10 3 359 1 1
Height
1510 1510 1512 1513 1517 1528 1529 1522 1516 1515 1514 1514 1515 1517 1520 1524 1528 1533 1530 1531 1534 1537 1539 1542 1545 1547 1548 1550 1552 1553 1554 1556 1557 1558 1559 1560 1561 1563 1563 1564 1565 1566 1566 1567 1567 1567 1568 1568 1568
1509 1510 1513 1513 1524 1537 1531 1520 1517 1514 1514 1515 1516 1518 1521 1524 1525 1526 1528 1532 1536 1538 1541 1543 1546 1548 1550 1551 1553 1554 1555 1557 1558 1559 1560 1562 1563 1563 1564 1565 1566 1566 1567 1567 1567 1568 1568 1568 1569
1509 1510 1513 1516 1528 1533 1525 1517 1515 1514 1515 1515 1518 1520 1523 1525 1526 1527 1530 1533 1537 1540 1542 1544 1547 1549 1551 1552 1554 1555 1557 1558 1559 1560 1561 1563 1564 1564 1565 1566 1566 1567 1567 1568 1568 1568 1568 1568 1569
1509 1511 1513 1522 1526 1523 1518 1514 1513 1514 1515 1517 1519 1523 1525 1528 1528 1529 1531 1535 1538 1541 1543 1546 1548 1550 1552 1553 1555 1556 1558 1559 1560 1561 1562 1563 1564 1565 1566 1566 1567 1567 1567 1568 1568 1568 1568 1568 1569
1508 1510 1519 1528 1524 1519 1515 1513 1513 1514 1517 1519 1521 1525 1527 1529 1529 1531 1533 1536 1539 1542 1545 1547 1549 1551 1552 1554 1556 1557 1558 1560 1561 1562 1563 1564 1564 1565 1566 1566 1567 1567 1567 1568 1568 1568 1568 1568 1569
1508 1510 1527 1531 1524 1518 1515 1514 1514 1516 1518 1521 1523 1526 1529 1530 1531 1533 1535 1537 1541 1543 1545 1548 1550 1552 1553 1555 1556 1558 1559 1560 1561 1562 1563 1564 1564 1565 1566 1566 1566 1567 1567 1567 1567 1567 1567 1568 1568
1508 1515 1525 1524 1523 1519 1515 1514 1515 1516 1519 1522 1523 1526 1529 1531 1533 1535 1537 1539 1542 1544 1546 1548 1550 1552 1554 1555 1557 1558 1559 1560 1561 1562 1563 1564 1564 1565 1565 1566 1566 1566 1566 1566 1566 1567 1567 1567 1567
1507 1513 1521 1524 1522 1519 1516 1515 1517 1517 1520 1523 1524 1526 1529 1531 1534 1536 1538 1541 1542 1545 1547 1549 1551 1552 1554 1555 1557 1558 1559 1560 1561 1562 1563 1563 1564 1564 1565 1565 1565 1565 1565 1565 1565 1565 1565 1565 1566
1507 1518 1525 1521 1519 1517 1515 1516 1518 1519 1520 1522 1524 1527 1528 1531 1534 1536 1539 1541 1543 1545 1548 1550 1551 1553 1554 1556 1557 1558 1559 1560 1561 1562 1562 1563 1563 1564 1564 1564 1564 1564 1564 1564 1564 1564 1564 1564 1564
1507 1520 1517 1513 1512 1513 1515 1516 1518 1520 1522 1524 1526 1527 1530 1532 1534 1536 1539 1541 1543 1545 1548 1550 1551 1553 1554 1555 1557 1558 1559 1560 1561 1561 1562 1563 1563 1563 1563 1563 1563 1563 1563 1563 1563 1563 1562 1562 1562
1508 1513 1511 1510 1510 1512 1514 1516 1518 1520 1524 1524 1525 1527 1530 1533 1535 1537 1539 1541 1544 1546 1548 1550 1552 1553 1554 1556 1557 1558 1558 1559 1560 1561 1561 1561 1562 1562 1562 1562 1562 1561 1561 1561 1561 1561 1560 1560 1560
1509 1509 1509 1510 1511 1512 1514 1517 1520 1521 1523 1524 1526 1528 1530 1533 1535 1538 1540 1542 1544 1546 1548 1550 1552 1553 1554 1555 1556 1557 1558 1559 1559 1559 1560 1560 1560 1561 1561 1561 1560 1560 1560 1559 1559 1559 1558 1558 1558
1509 1510 1510 1510 1511 1513 1515 1518 1520 1523 1523 1525 1527 1530 1532 1534 1537 1539 1541 1543 1545 1547 1549 1550 1552 1553 1554 1555 1556 1556 1557 1558 1558 1558 1559 1559 1559 1560 1560 1559 1559 1558 1558 1558 1557 1557 1556 1556 1555
1509 1510 1511 1512 1512 1515 1517 1521 1523 1526 1526 1527 1529 1532 1535 1536 1538 1540 1541 1543 1545 1547 1549 1550 1551 1552 1553 1554 1555 1555 1556 1556 1557 1557 1558 1558 1558 1558 1558 1558 1557 1557 1556 1556 1555 1554 1554 1554 1553
1509 1512 1514 1514 1514 1517 1518 1525 1526 1526 1527 1529 1531 1534 1536 1537 1539 1540 1542 1543 1545 1547 1548 1550 1551 1551 1552 1553 1554 1554 1555 1555 1556 1556 1556 1557 1557 1557 1556 1556 1555 1555 1554 1553 1553 1552 1552 1551 1551
1511 1517 1522 1518 1517 1518 1523 1532 1527 1528 1528 1530 1533 1535 1537 1538 1540 1541 1542 1543 1545 1546 1548 1549 1550 1551 1552 1552 1553 1554 1554 1555 1555 1555 1555 1555 1555 1555 1554 1553 1553 1552 1552 1551 1550 1549 1549 1548 1548
1520 1526 1525 1522 1518 1519 1523 1528 1527 1528 1529 1531 1533 1535 1537 1538 1540 1541 1542 1543 1544 1546 1547 1548 1549 1551 1551 1552 1552 1553 1553 1554 1554 1554 1554 1554 1553 1553 1552 1551 1551 1550 1550 1549 1548 1547 1546 1546 1545
1524 1524 1524 1524 1519 1520 1524 1526 1527 1527 1529 1531 1533 1535 1537 1538 1539 1541 1542 1544 1544 1545 1547 1548 1549 1550 1551 1551 1551 1552 1552 1553 1553 1552 1552 1552 1552 1551 1551 1550 1549 1548 1548 1547 1546 1545 1544 1544 1543
1515 1520 1524 1522 1518 1521 1524 1526 1527 1527 1529 1531 1532 1534 1536 1537 1539 1540 1542 1543 1544 1545 1546 1547 1548 1549 1549 1549 1550 1551 1551 1551 1551 1551 1551 1550 1550 1549 1549 1548 1547 1546 1546 1545 1544 1543 1543 1542 1541
1515 1521 1524 1521 1518 1521 1526 1527 1526 1527 1527 1528 1530 1532 1534 1535 1537 1539 1541 1542 1543 1544 1545 1546 1547 1547 1548 1548 1549 1549 1550 1550 1550 1550 1549 1549 1549 1548 1547 1546 1546 1545 1544 1543 1542 1541 1541 1540 1540
1515 1519 1519 1521 1521 1522 1526 1531 1529 1528 1528 1529 1529 1530 1531 1533 1535 1537 1539 1541 1542 1544 1544 1545 1546 1547 1547 1548 1548 1548 1548 1549 1549 1549 1548 1548 1548 1547 1546 1545 1544 1543 1542 1541 1540 1540 1539 1538 1538
1515 1509 1512 1517 1526 1533 1530 1540 1530 1527 1527 1526 1526 1528 1529 1531 1533 1535 1537 1539 1541 1543 1544 1544 1545 1546 1546 1547 1546 1547 1548 1548 1548 1548 1547 1547 1547 1546 1545 1544 1543 1542 1541 1540 1539 1538 1537 1537 1536
1507 1506 1511 1518 1526 1534 1533 1539 1534 1527 1527 1523 1523 1525 1527 1529 1531 1533 1536 1538 1540 1542 1543 1544 1544 1545 1545 1545 1546 1546 1547 1547 1547 1547 1547 1547 1546 1545 1544 1543 1542 1541 1540 1538 1537 1536 1536 1535 1534
1504 1511 1517 1525 1532 1541 1535 1540 1536 1528 1522 1519 1520 1522 1524 1527 1530 1532 1534 1536 1538 1540 1542 1543 1543 1544 1544 1544 1545 1546 1546 1547 1546 1546 1546 1545 1545 1544 1543 1542 1541 1540 1538 1537 1536 1535 1534 1533 1533
1506 1521 1538 1540 1547 1544 1534 1537 1532 1519 1516 1516 1517 1519 1522 1525 1528 1530 1532 1535 1537 1539 1540 1541 1542 1543 1543 1543 1544 1545 1545 1546 1546 1546 1545 1545 1544 1543 1542 1541 1540 1538 1537 1535 1534 1533 1532 1531 1530
1509 1516 1537 1546 1549 1544 1535 1536 1525 1516 1515 1514 1515 1517 1520 1523 1526 1529 1531 1534 1536 1538 1539 1540 1541 1542 1542 1543 1544 1545 1545 1545 1545 1545 1544 1544 1543 1542 1541 1540 1539 1537 1536 1534 1533 1531 1530 1529 1528
1510 1517 1519 1535 1540 1544 1539 1530 1520 1515 1515 1515 1516 1518 1520 1523 1525 1528 1530 1533 1535 1536 1538 1539 1541 1542 1542 1543 1544 1544 1545 1545 1545 1544 1544 1543 1543 1542 1541 1539 1538 1536 1535 1533 1531 1530 1529 1528 1527
1505 1513 1525 1534 1544 1546 1537 1532 1527 1517 1516 1516 1517 1518 1520 1523 1525 1527 1529 1532 1534 1535 1537 1539 1540 1541 1542 1543 1543 1544 1544 1544 1544 1544 1543 1543 1542 1541 1540 1539 1537 1536 1534 1533 1531 1529 1528 1527 1526
1509 1515 1523 1533 1534 1543 1544 1535 1514 1512 1512 1514 1516 1518 1520 1523 1525 1527 1529 1531 1533 1535 1536 1538 1539 1540 1541 1542 1543 1543 1543 1543 1544 1544 1543 1542 1542 1541 1539 1538 1537 1535 1534 1532 1530 1529 1528 1526 1525
1503 1509 1518 1527 1531 1535 1539 1533 1510 1509 1510 1512 1515 1518 1520 1522 1525 1527 1529 1531 1533 1534 1536 1537 1538 1540 1541 1542 1542 1543 1543 1543 1543 1543 1543 1542 1542 1540 1539 1537 1536 1535 1533 1532 1530 1528 1527 1526 1524